Погода в Сент-Огастине

США     29°52′02″N   81°17′09″W
В апреле 2022 года жителям России запретили посещать сайт meteo.paraplan.net по решению Генеральной прокуратуры. Аудитория сайта уменьшилась в 10 раз. Владельцы сайта не видят смысла в поддержке погодного сервера в таких условиях. Сайт будет закрыт в октябре.
темп.,
°C
ветер,
м/с
пор.,
м/с
влажн.,
%
обл.,
%
осадки,
мм/ч
давл.,
гПа
погр.,
м
29 сентября, чт
чт2923:00+25св131987100 3.7 10081361
02:00+24св131993100 18.3 10071356
05:00+24св141996100 28.9 10041129
08:00+24св152196100 83.6 10031425
11:00+23ссв162296100 53.9 10041241
14:00+23ссв192693100 88.8 10041579
17:00+22ссв162294100 39.6 10021290
20:00+22с172495100 86.9 10011232
30 сентября, пт
пт3023:00+23ссв192493100 25.0 9991251
02:00+23с172593100 52.8 9991511
05:00+20сз132392100 8.6 10001310
08:00+18зсз9168599 8.9 1003903
11:00+21зсз7106989 0.0 1006885
14:00+24зсз576189 0.0 10061232
17:00+22зсз686521 0.0 1006947
20:00+19зсз510730 0.0 1008610
1 октября, сб
сб123:00+18зсз23780 0.0 1009280
02:00+17з24820 0.0 1009266
05:00+16зсз35860 0.0 1009240
08:00+17зсз12840 0.0 1011163
11:00+22ссз23620 0.0 1012576
14:00+26св12530 0.0 1010899
17:00+26в23520 0.0 10101164
20:00+23ююв23680 0.0 1011149
2 октября, вс
вс223:00+21юз35740 0.0 1012152
02:00+20зюз36750 0.0 1012168
05:00+20зюз47810 0.0 1011173
08:00+20зюз37820 0.0 1012211
11:00+26з47510 0.0 1013887
14:00+29з46410 0.0 10121308
17:00+29з46420 0.0 10101225
20:00+25зсз22560 0.0 101156
3 октября, пн
пн323:00+22зюз48690 0.0 1014218
02:00+21зюз35720 0.0 1013134
05:00+20з3475100 0.0 1013116
08:00+20зюз237644 0.0 1014114
11:00+26ююз1255100 0.0 1015550
14:00+29в1344100 0.0 10141348
17:00+28в33474 0.0 10131372
20:00+25юв35647 0.0 1014303